リニア彗星

C/2006 XA1 ( LINEAR )

English version
Home page
Updated on July 27, 2008

---------------------------------------------------------------------

・ プロフィール

発見日 2006年12月9日
発見光度 17.6等
発見者 Lincoln Laboratory Near-Earth Asteroid Research project

・ 写真集

・ 軌道要素

The following orbital elements are taken from MPC 62270:

Epoch 2007 Aug. 8.0 TT = JDT 2454320.5
T 2007 July 21.9010 TT                                  MPC
q   1.804376             (2000.0)            P               Q
z  +0.004049       Peri.  187.4199      -0.8179378      -0.4666144
 +/-0.000003       Node   318.6623      +0.5505428      -0.4650771
e   0.992694       Incl.   30.6307      +0.1669741      -0.7523126
From 465 observations 2006 Dec. 9-2008 Mar. 9, mean residual 0".5.

・ 星図

・ 光度変化

        m1 = 7.0 + 5 logΔ + 15.0 log r

---------------------------------------------------------------------

軌道要素はMPCのEphemerides and Orbital Elementsに掲載されたものです。
星図は StellaNavigator Ver.2.0 for Windows (アストロアーツ 編著 / アスキー出版局刊) で作成したものです。
光度グラフはComet for Windowsで作成したものです。

---------------------------------------------------------------------

Copyright(C) Seiichi Yoshida (comet@aerith.net). All rights reserved.